CW6955 Weather Reports


time (UTC)temp
F
wind
direction
speed
knots
gust
knots
rain 1hr
in
rain 24hr
in
rain mn
in
humidity
%
barometer
mb
20260507015214 59 161 5.2 7.8 0.00 0.00 0.00 77 1007.3
20260507015014 59 168 5.2 7.8 0.00 0.00 0.00 77 1007.3
20260507014815 58 173 5.2 8.7 0.00 0.00 0.00 78 1007.3
20260507014614 58 178 5.2 10.4 0.00 0.00 0.00 78 1007.3
20260507014415 58 179 5.2 10.4 0.00 0.00 0.00 78 1007.3
20260507014014 59 182 5.2 10.4 0.00 0.00 0.00 77 1007.2
20260507013815 59 181 5.2 11.3 0.00 0.00 0.00 77 1007.3
20260507013615 59 183 5.2 11.3 0.00 0.00 0.00 78 1007.2
20260507013415 59 182 5.2 11.3 0.00 0.00 0.00 78 1007.2
20260507013216 59 182 5.2 11.3 0.00 0.00 0.00 78 1007.1
20260507012815 58 182 5.2 9.6 0.00 0.00 0.00 78 1007.2
20260507012615 58 179 5.2 9.6 0.00 0.00 0.00 78 1007.2
20260507012417 58 178 6.1 9.6 0.00 0.00 0.00 78 1007.2
20260507012016 58 177 6.1 9.6 0.00 0.00 0.00 78 1007.1
20260507011614 59 179 6.1 9.6 0.00 0.00 0.00 77 1007.0
20260507011416 59 179 6.1 12.2 0.00 0.00 0.00 77 1007.0
20260507011216 59 178 6.1 12.2 0.00 0.00 0.00 77 1007.0
20260507011014 59 175 6.1 12.2 0.00 0.00 0.00 77 1007.0
20260507010815 59 174 6.1 12.2 0.00 0.00 0.00 77 1006.9
20260507010614 59 171 6.1 13.0 0.00 0.00 0.00 76 1007.0
20260507010016 59 172 6.1 13.0 0.00 0.00 0.00 76 1006.9
20260507005816 59 173 6.1 13.0 0.00 0.00 0.00 76 1006.9
20260507005414 60 178 6.1 11.3 0.00 0.00 0.00 76 1006.8
20260507005214 60 179 6.1 11.3 0.00 0.00 0.00 76 1006.8
20260507004815 60 182 7.0 10.4 0.00 0.00 0.00 75 1006.6
20260507004615 60 182 7.0 10.4 0.00 0.00 0.00 75 1006.6
20260507004415 60 179 7.0 13.0 0.00 0.00 0.00 74 1006.5
20260507004214 60 176 7.8 13.0 0.00 0.00 0.00 74 1006.6
20260507003815 60 167 7.8 14.8 0.00 0.00 0.00 74 1006.5
20260507003614 60 166 7.8 14.8 0.00 0.00 0.00 73 1006.4
20260507003414 60 169 7.8 14.8 0.00 0.00 0.00 73 1006.4
20260507003214 60 169 8.7 14.8 0.00 0.00 0.00 73 1006.4
20260507003014 60 167 8.7 17.4 0.00 0.00 0.00 73 1006.5
20260507002814 61 164 8.7 17.4 0.00 0.00 0.00 73 1006.5
20260507002615 61 161 8.7 17.4 0.00 0.00 0.00 73 1006.5
20260507002414 61 156 8.7 17.4 0.00 0.00 0.00 72 1006.4
20260507002215 61 153 8.7 17.4 0.00 0.00 0.00 72 1006.3
20260507002014 61 152 8.7 15.6 0.00 0.00 0.00 72 1006.3
20260507001815 61 151 7.8 14.8 0.00 0.00 0.00 72 1006.3
20260507001615 61 149 7.8 15.6 0.00 0.00 0.00 72 1006.3
20260507001414 61 150 7.8 15.6 0.00 0.00 0.00 72 1006.2
20260507001214 61 150 7.0 15.6 0.00 0.00 0.00 72 1006.1
20260507001014 61 152 7.0 15.6 0.00 0.00 0.00 72 1006.1
20260507000614 61 157 7.8 12.2 0.00 0.00 0.00 72 1006.0
20260507000413 61 157 7.8 12.2 0.00 0.00 0.00 71 1006.0
20260507000214 61 158 7.8 12.2 0.00 0.00 0.00 71 1006.0
20260506235814 62 155 8.7 13.9 0.00 0.00 0.00 71 1006.0
20260506235614 62 153 8.7 15.6 0.00 0.00 0.00 71 1006.0
20260506235414 62 152 8.7 15.6 0.00 0.00 0.00 71 1006.0
20260506235214 62 150 8.7 15.6 0.00 0.00 0.00 71 1006.0
20260506235014 62 148 8.7 15.6 0.00 0.00 0.00 71 1006.0
20260506234614 62 146 8.7 15.6 0.00 0.00 0.00 71 1005.9
20260506234415 62 144 8.7 15.6 0.00 0.00 0.00 71 1005.9
20260506234014 62 146 7.8 15.6 0.00 0.00 0.00 71 1005.8
20260506233815 62 147 7.8 15.6 0.00 0.00 0.00 71 1005.8
20260506233614 62 147 7.8 15.6 0.00 0.00 0.00 71 1005.8
20260506233413 62 149 7.8 15.6 0.00 0.00 0.00 71 1005.8
20260506233214 62 152 8.7 14.8 0.00 0.00 0.00 71 1005.7
20260506233013 62 153 8.7 16.5 0.00 0.00 0.00 71 1005.7
20260506232614 62 154 8.7 16.5 0.00 0.00 0.00 70 1005.8
20260506232214 62 154 8.7 16.5 0.00 0.00 0.00 70 1005.8
20260506232014 62 153 7.8 14.8 0.00 0.00 0.00 70 1005.8
20260506231814 62 151 7.8 14.8 0.00 0.00 0.00 70 1005.8
20260506231614 62 152 7.8 14.8 0.00 0.00 0.00 70 1005.8
20260506231414 62 152 8.7 13.9 0.00 0.00 0.00 70 1005.8
20260506231014 62 153 8.7 14.8 0.00 0.00 0.00 70 1005.7
20260506230614 62 154 8.7 16.5 0.00 0.00 0.00 70 1005.7
20260506230414 63 154 9.6 16.5 0.00 0.00 0.00 70 1005.6
20260506230214 63 153 8.7 16.5 0.00 0.00 0.00 70 1005.6
20260506230014 63 151 8.7 19.1 0.00 0.00 0.00 69 1005.6
20260506225814 63 147 8.7 19.1 0.00 0.00 0.00 69 1005.5
20260506225614 63 146 8.7 19.1 0.00 0.00 0.00 69 1005.4
20260506225414 63 143 7.8 19.1 0.00 0.00 0.00 69 1005.4
20260506225214 63 143 7.8 19.1 0.00 0.00 0.00 69 1005.4
20260506225014 63 142 7.8 15.6 0.00 0.00 0.00 70 1005.4
20260506224814 63 142 7.0 15.6 0.00 0.00 0.00 70 1005.3
20260506224614 63 142 7.0 14.8 0.00 0.00 0.00 70 1005.4
20260506224414 63 142 7.0 14.8 0.00 0.00 0.00 70 1005.3
20260506224213 63 141 7.0 14.8 0.00 0.00 0.00 70 1005.4
20260506223814 63 141 7.0 14.8 0.00 0.00 0.00 70 1005.3
20260506223614 62 139 7.0 13.9 0.00 0.00 0.00 70 1005.3
20260506223414 62 140 7.0 14.8 0.00 0.00 0.00 71 1005.3
20260506223214 62 141 7.8 14.8 0.00 0.00 0.00 71 1005.3
20260506223014 62 140 7.8 14.8 0.00 0.00 0.00 70 1005.2
20260506222815 62 142 7.8 14.8 0.00 0.00 0.00 70 1005.2
20260506222613 62 143 7.8 14.8 0.00 0.00 0.00 70 1005.1
20260506222413 62 142 7.8 15.6 0.00 0.00 0.00 70 1005.0
20260506222213 62 141 7.8 15.6 0.00 0.00 0.00 70 1005.0
20260506222013 63 142 7.8 16.5 0.00 0.00 0.00 70 1005.0
20260506221814 63 141 7.8 16.5 0.00 0.00 0.00 70 1005.0
20260506221614 63 141 7.8 16.5 0.00 0.00 0.00 70 1005.0
20260506221414 63 142 7.8 16.5 0.00 0.00 0.00 70 1004.9
20260506221214 63 140 7.8 16.5 0.00 0.00 0.00 70 1004.9
20260506220814 63 139 7.0 14.8 0.00 0.00 0.00 70 1004.9
20260506220414 63 138 7.0 15.6 0.00 0.00 0.00 69 1004.7
20260506220214 63 138 7.8 15.6 0.00 0.00 0.00 69 1004.8
20260506220014 63 137 7.8 15.6 0.00 0.00 0.00 69 1004.8
20260506215814 63 139 7.8 15.6 0.00 0.00 0.00 69 1004.8
20260506215614 63 140 7.8 15.6 0.00 0.00 0.00 68 1004.8
20260506215414 63 140 7.8 15.6 0.00 0.00 0.00 68 1004.9
20260506215213 63 140 7.8 15.6 0.00 0.00 0.00 68 1004.9
20260506215014 63 140 7.8 15.6 0.00 0.00 0.00 68 1004.9
20260506214814 63 138 7.8 13.0 0.00 0.00 0.00 68 1004.8
20260506214613 63 137 7.8 13.9 0.00 0.00 0.00 68 1004.9
20260506214414 64 137 7.8 14.8 0.00 0.00 0.00 68 1004.9
20260506214214 64 139 7.8 14.8 0.00 0.00 0.00 67 1004.9
20260506214014 64 139 7.8 14.8 0.00 0.00 0.00 67 1004.9
20260506213814 64 140 7.8 14.8 0.00 0.00 0.00 67 1004.9
20260506213414 64 139 7.8 13.9 0.00 0.00 0.00 67 1004.8
20260506213214 64 139 7.8 13.9 0.00 0.00 0.00 67 1004.8
20260506213014 64 138 7.8 13.9 0.00 0.00 0.00 67 1004.8
20260506212814 64 137 7.8 13.9 0.00 0.00 0.00 67 1004.8
20260506212414 64 140 8.7 14.8 0.00 0.00 0.00 66 1004.8
20260506212214 64 140 8.7 16.5 0.00 0.00 0.00 66 1004.7
20260506212013 64 140 8.7 16.5 0.00 0.00 0.00 66 1004.7
20260506211813 64 141 8.7 16.5 0.00 0.00 0.00 66 1004.8
20260506211614 65 138 8.7 18.2 0.00 0.00 0.00 66 1004.8
20260506211214 65 135 8.7 18.2 0.00 0.00 0.00 65 1004.7
20260506211014 65 135 9.6 18.2 0.00 0.00 0.00 65 1004.7
20260506210813 65 135 9.6 18.2 0.00 0.00 0.00 65 1004.6
20260506210613 65 138 9.6 18.2 0.00 0.00 0.00 65 1004.6
20260506210413 65 140 9.6 19.1 0.00 0.00 0.00 65 1004.7
20260506210213 65 140 9.6 19.1 0.00 0.00 0.00 64 1004.7
20260506210014 65 141 9.6 20.0 0.00 0.00 0.00 64 1004.7
20260506205814 65 141 9.6 20.0 0.00 0.00 0.00 64 1004.7
20260506205614 65 140 9.6 20.0 0.00 0.00 0.00 64 1004.7
20260506205414 65 141 9.6 20.0 0.00 0.00 0.00 64 1004.7
20260506205214 65 141 9.6 20.0 0.00 0.00 0.00 64 1004.7
20260506205014 65 142 9.6 17.4 0.00 0.00 0.00 64 1004.7
20260506204814 65 142 9.6 18.2 0.00 0.00 0.00 64 1004.6
20260506204614 65 141 9.6 18.2 0.00 0.00 0.00 64 1004.6
20260506204213 65 140 9.6 24.3 0.00 0.00 0.00 64 1004.6
20260506204014 65 137 10.4 24.3 0.00 0.00 0.00 64 1004.6
20260506203613 65 140 9.6 24.3 0.00 0.00 0.00 64 1004.4
20260506203414 65 140 9.6 20.9 0.00 0.00 0.00 63 1004.4
20260506203214 65 141 8.7 20.9 0.00 0.00 0.00 63 1004.4
20260506203014 65 142 7.8 20.9 0.00 0.00 0.00 63 1004.4
20260506202814 65 140 7.8 20.9 0.00 0.00 0.00 63 1004.5
20260506202613 65 137 7.8 20.0 0.00 0.00 0.00 63 1004.5
20260506202413 65 135 7.8 20.0 0.00 0.00 0.00 63 1004.5
20260506202013 66 134 7.8 19.1 0.00 0.00 0.00 63 1004.4
20260506201613 66 136 7.8 19.1 0.00 0.00 0.00 63 1004.4
20260506201413 66 137 7.8 19.1 0.00 0.00 0.00 62 1004.5
20260506201213 66 138 7.8 19.1 0.00 0.00 0.00 62 1004.4
20260506201013 66 138 7.8 17.4 0.00 0.00 0.00 62 1004.4
20260506200413 66 139 8.7 15.6 0.00 0.00 0.00 62 1004.4
20260506200213 66 141 9.6 15.6 0.00 0.00 0.00 62 1004.4
20260506200013 66 141 9.6 15.6 0.00 0.00 0.00 62 1004.4
20260506195813 66 140 9.6 18.2 0.00 0.00 0.00 62 1004.4
20260506195613 66 140 9.6 19.1 0.00 0.00 0.00 62 1004.4
20260506195413 66 141 8.7 19.1 0.00 0.00 0.00 62 1004.2
20260506195213 66 140 8.7 19.1 0.00 0.00 0.00 62 1004.3
20260506195013 66 139 8.7 19.1 0.00 0.00 0.00 62 1004.2
20260506194813 66 140 8.7 19.1 0.00 0.00 0.00 62 1004.2
20260506194613 66 143 8.7 17.4 0.00 0.00 0.00 62 1004.1
20260506194413 66 143 8.7 17.4 0.00 0.00 0.00 62 1004.2
20260506194213 66 144 8.7 15.6 0.00 0.00 0.00 61 1004.2
20260506194013 66 144 8.7 15.6 0.00 0.00 0.00 61 1004.2
20260506193613 67 142 7.8 17.4 0.00 0.00 0.00 61 1004.2
20260506193413 67 142 7.8 17.4 0.00 0.00 0.00 61 1004.2
20260506193213 67 140 7.8 17.4 0.00 0.00 0.00 60 1004.2
20260506193013 67 140 7.8 17.4 0.00 0.00 0.00 60 1004.2
20260506192813 67 142 7.8 17.4 0.00 0.00 0.00 60 1004.2
20260506192613 67 144 7.8 13.9 0.00 0.00 0.00 60 1004.2
20260506192413 67 145 7.8 13.9 0.00 0.00 0.00 60 1004.2
20260506192213 67 147 7.8 13.9 0.00 0.00 0.00 60 1004.4
20260506192013 67 148 7.8 17.4 0.00 0.00 0.00 60 1004.4
20260506191413 67 145 7.8 17.4 0.00 0.00 0.00 59 1004.3
20260506191213 67 143 8.7 17.4 0.00 0.00 0.00 59 1004.3
20260506191013 67 142 8.7 17.4 0.00 0.00 0.00 59 1004.3
20260506190813 67 142 9.6 17.4 0.00 0.00 0.00 58 1004.3
20260506190413 67 143 10.4 20.9 0.00 0.00 0.00 58 1004.2
20260506190213 67 143 10.4 20.9 0.00 0.00 0.00 58 1004.2
20260506190013 68 141 10.4 20.9 0.00 0.00 0.00 58 1004.2
20260506185813 68 141 10.4 20.9 0.00 0.00 0.00 58 1004.2
20260506185413 68 141 9.6 17.4 0.00 0.00 0.00 58 1004.1
20260506184813 68 143 8.7 17.4 0.00 0.00 0.00 57 1004.0
20260506184613 68 144 8.7 17.4 0.00 0.00 0.00 57 1004.0
20260506184413 68 143 8.7 15.6 0.00 0.00 0.00 57 1003.9
20260506184213 68 143 8.7 15.6 0.00 0.00 0.00 57 1003.9
20260506184013 68 142 8.7 17.4 0.00 0.00 0.00 57 1003.9
20260506183813 68 142 8.7 17.4 0.00 0.00 0.00 57 1003.9
20260506183613 68 140 8.7 17.4 0.00 0.00 0.00 57 1003.9
20260506183413 68 138 8.7 17.4 0.00 0.00 0.00 56 1003.8
20260506183213 68 138 8.7 17.4 0.00 0.00 0.00 56 1003.6
20260506183013 68 137 9.6 16.5 0.00 0.00 0.00 56 1003.6
20260506182813 68 138 9.6 19.1 0.00 0.00 0.00 56 1003.6
20260506182613 69 138 9.6 20.0 0.00 0.00 0.00 56 1003.6
20260506182213 69 138 9.6 20.0 0.00 0.00 0.00 55 1003.6
20260506182013 69 139 9.6 20.0 0.00 0.00 0.00 55 1003.5
20260506181814 69 139 9.6 20.0 0.00 0.00 0.00 55 1003.4
20260506181613 69 139 9.6 20.0 0.00 0.00 0.00 55 1003.3
20260506181413 69 139 9.6 20.0 0.00 0.00 0.00 55 1003.4
20260506181013 69 137 9.6 19.1 0.00 0.00 0.00 54 1003.3
20260506180813 69 136 8.7 19.1 0.00 0.00 0.00 54 1003.3
20260506180613 69 135 8.7 19.1 0.00 0.00 0.00 54 1003.2
20260506180413 69 134 8.7 19.1 0.00 0.00 0.00 54 1003.3
20260506180213 69 132 8.7 19.1 0.00 0.00 0.00 54 1003.3
20260506180013 69 133 8.7 16.5 0.00 0.00 0.00 54 1003.4
20260506175813 70 134 8.7 16.5 0.00 0.00 0.00 54 1003.4
20260506175613 70 135 8.7 18.2 0.00 0.00 0.00 53 1003.4
20260506175413 70 135 8.7 18.2 0.00 0.00 0.00 53 1003.5
20260506175213 70 137 8.7 20.9 0.00 0.00 0.00 53 1003.4
20260506175013 70 136 8.7 20.9 0.00 0.00 0.00 53 1003.5
20260506174813 70 137 8.7 20.9 0.00 0.00 0.00 53 1003.5
20260506174613 70 136 8.7 20.9 0.00 0.00 0.00 53 1003.6
20260506174413 70 135 7.8 20.9 0.00 0.00 0.00 53 1003.5
20260506174213 70 135 7.8 17.4 0.00 0.00 0.00 53 1003.5
20260506173813 70 132 7.8 16.5 0.00 0.00 0.00 52 1003.6
20260506173613 70 136 7.8 18.2 0.00 0.00 0.00 53 1003.5
20260506173413 71 137 7.8 18.2 0.00 0.00 0.00 53 1003.4
20260506173213 71 138 7.8 18.2 0.00 0.00 0.00 53 1003.4
20260506173013 71 138 7.8 18.2 0.00 0.00 0.00 52 1003.4
20260506172813 71 136 7.0 18.2 0.00 0.00 0.00 52 1003.4
20260506172612 71 134 7.0 16.5 0.00 0.00 0.00 52 1003.4
20260506172413 71 134 7.0 16.5 0.00 0.00 0.00 52 1003.5
20260506172213 71 131 7.8 16.5 0.00 0.00 0.00 52 1003.5
20260506172013 71 136 7.8 19.1 0.00 0.00 0.00 52 1003.5
20260506171813 71 139 7.8 19.1 0.00 0.00 0.00 51 1003.5
20260506171613 71 139 8.7 19.1 0.00 0.00 0.00 51 1003.6
20260506171413 72 141 8.7 19.1 0.00 0.00 0.00 51 1003.6
20260506171213 72 141 8.7 19.1 0.00 0.00 0.00 51 1003.6
20260506171013 72 138 8.7 16.5 0.00 0.00 0.00 50 1003.6
20260506170813 72 138 8.7 20.0 0.00 0.00 0.00 50 1003.6
20260506170613 72 140 8.7 20.0 0.00 0.00 0.00 50 1003.6
20260506170213 72 141 9.6 20.0 0.00 0.00 0.00 50 1003.6
20260506170013 72 144 9.6 20.0 0.00 0.00 0.00 50 1003.6
20260506165813 72 144 9.6 17.4 0.00 0.00 0.00 50 1003.7
20260506165613 72 145 9.6 18.2 0.00 0.00 0.00 49 1003.6
20260506165413 72 145 9.6 18.2 0.00 0.00 0.00 50 1003.7
20260506165213 72 147 9.6 18.2 0.00 0.00 0.00 49 1003.7
20260506164813 72 145 9.6 23.5 0.00 0.00 0.00 49 1003.6
20260506164613 72 141 9.6 23.5 0.00 0.00 0.00 49 1003.7
20260506164413 73 139 8.7 23.5 0.00 0.00 0.00 49 1003.7
20260506164213 73 136 8.7 23.5 0.00 0.00 0.00 49 1003.8
20260506164013 73 135 8.7 23.5 0.00 0.00 0.00 49 1003.8
20260506163813 73 132 8.7 18.2 0.00 0.00 0.00 50 1003.7
20260506163613 73 131 7.8 18.2 0.00 0.00 0.00 50 1003.7
20260506163413 73 130 7.8 18.2 0.00 0.00 0.00 50 1003.8
20260506163213 73 130 7.8 18.2 0.00 0.00 0.00 50 1003.9
20260506163013 73 130 7.8 16.5 0.00 0.00 0.00 50 1003.9
20260506162813 73 130 8.7 16.5 0.00 0.00 0.00 50 1003.8
20260506162613 73 132 8.7 16.5 0.00 0.00 0.00 50 1003.9
20260506162413 73 133 9.6 18.2 0.00 0.00 0.00 50 1003.9
20260506161813 73 138 10.4 19.1 0.00 0.00 0.00 50 1004.0
20260506161613 73 138 10.4 20.0 0.00 0.00 0.00 50 1004.0
20260506161413 73 141 9.6 20.0 0.00 0.00 0.00 49 1004.1
20260506161012 73 145 9.6 20.0 0.00 0.00 0.00 49 1004.1
20260506160813 73 141 8.7 21.7 0.00 0.00 0.00 48 1004.1
20260506160613 73 142 8.7 21.7 0.00 0.00 0.00 48 1004.1
20260506160413 74 139 7.8 21.7 0.00 0.00 0.00 48 1004.0
20260506160213 74 136 7.8 21.7 0.00 0.00 0.00 48 1004.1
20260506160013 74 135 7.8 21.7 0.00 0.00 0.00 47 1004.1
20260506155813 74 136 8.7 13.9 0.00 0.00 0.00 47 1004.1
20260506155412 74 132 8.7 16.5 0.00 0.00 0.00 47 1004.2
20260506155213 74 135 8.7 16.5 0.00 0.00 0.00 46 1004.2
20260506155013 74 137 8.7 16.5 0.00 0.00 0.00 47 1004.2
20260506154813 74 139 8.7 16.5 0.00 0.00 0.00 46 1004.3
20260506154613 74 140 9.6 16.5 0.00 0.00 0.00 46 1004.3
20260506154212 74 135 9.6 19.1 0.00 0.00 0.00 46 1004.4
20260506154013 74 133 10.4 19.1 0.00 0.00 0.00 46 1004.3
20260506153613 74 130 10.4 19.1 0.00 0.00 0.00 46 1004.4
20260506153413 74 129 10.4 19.1 0.00 0.00 0.00 46 1004.4
20260506153213 74 127 10.4 19.1 0.00 0.00 0.00 46 1004.4
20260506152813 74 125 11.3 19.1 0.00 0.00 0.00 46 1004.4
20260506152613 74 122 11.3 19.1 0.00 0.00 0.00 46 1004.4
20260506152413 74 122 11.3 19.1 0.00 0.00 0.00 46 1004.5
20260506152213 74 121 10.4 19.1 0.00 0.00 0.00 46 1004.5
20260506151813 74 120 10.4 22.6 0.00 0.00 0.00 46 1004.6
20260506151413 74 124 10.4 22.6 0.00 0.00 0.00 45 1004.5
20260506151213 74 126 10.4 22.6 0.00 0.00 0.00 45 1004.5
20260506151012 74 127 9.6 22.6 0.00 0.00 0.00 46 1004.6
20260506150812 74 125 9.6 18.2 0.00 0.00 0.00 45 1004.6
20260506150413 74 126 10.4 19.1 0.00 0.00 0.00 46 1004.6
20260506150012 74 130 10.4 19.1 0.00 0.00 0.00 45 1004.7
20260506145812 74 128 10.4 19.1 0.00 0.00 0.00 45 1004.7
20260506145613 74 126 10.4 20.9 0.00 0.00 0.00 46 1004.7
20260506145413 74 125 11.3 20.9 0.00 0.00 0.00 46 1004.7
20260506145213 74 121 11.3 20.9 0.00 0.00 0.00 46 1004.7
20260506144812 74 121 10.4 20.9 0.00 0.00 0.00 46 1004.7
20260506144612 74 119 10.4 20.9 0.00 0.00 0.00 46 1004.7
20260506144414 74 118 10.4 20.9 0.00 0.00 0.00 45 1004.8
20260506143813 75 119 10.4 20.9 0.00 0.00 0.00 45 1004.8
20260506143613 75 119 10.4 20.0 0.00 0.00 0.00 46 1004.8
20260506143413 75 121 10.4 20.0 0.00 0.00 0.00 46 1004.8
20260506143213 74 121 9.6 20.0 0.00 0.00 0.00 46 1004.7
20260506143013 74 123 9.6 20.0 0.00 0.00 0.00 46 1004.8
20260506142813 74 123 8.7 20.0 0.00 0.00 0.00 46 1004.8
20260506142613 74 123 8.7 20.0 0.00 0.00 0.00 46 1004.8
20260506142413 74 126 7.8 17.4 0.00 0.00 0.00 46 1004.8
20260506142212 74 127 8.7 15.6 0.00 0.00 0.00 47 1004.9
20260506142013 74 127 8.7 15.6 0.00 0.00 0.00 46 1004.9
20260506141813 74 126 9.6 13.9 0.00 0.00 0.00 46 1004.9
20260506141012 74 125 10.4 19.1 0.00 0.00 0.00 45 1005.1
20260506140812 75 125 10.4 19.1 0.00 0.00 0.00 44 1005.2
20260506140613 75 124 10.4 19.1 0.00 0.00 0.00 45 1005.1
20260506140413 75 126 10.4 20.0 0.00 0.00 0.00 45 1005.1
20260506140213 75 125 10.4 20.0 0.00 0.00 0.00 45 1005.2
20260506140013 75 124 10.4 20.0 0.00 0.00 0.00 45 1005.1
20260506135812 75 125 10.4 20.0 0.00 0.00 0.00 45 1005.1
20260506135612 75 126 10.4 20.0 0.00 0.00 0.00 45 1005.1
20260506135412 75 124 10.4 20.0 0.00 0.00 0.00 47 1005.0
20260506135013 75 122 10.4 20.9 0.00 0.00 0.00 48 1005.1
20260506134813 75 122 10.4 20.9 0.00 0.00 0.00 48 1005.2
20260506134612 75 123 10.4 20.9 0.00 0.00 0.00 49 1005.2
20260506134412 74 123 10.4 20.9 0.00 0.00 0.00 49 1005.2
20260506134212 74 122 10.4 20.9 0.00 0.00 0.00 49 1005.3
20260506134012 74 122 10.4 19.1 0.00 0.00 0.00 49 1005.4
20260506133813 74 125 9.6 19.1 0.00 0.00 0.00 49 1005.4
20260506133613 74 127 9.6 19.1 0.00 0.00 0.00 49 1005.5
20260506133413 75 128 10.4 17.4 0.00 0.00 0.00 48 1005.4
20260506133213 75 128 10.4 18.2 0.00 0.00 0.00 48 1005.5
20260506133012 75 129 10.4 19.1 0.00 0.00 0.00 49 1005.5
20260506132813 75 125 10.4 19.1 0.00 0.00 0.00 49 1005.5
20260506132613 75 123 10.4 20.0 0.00 0.00 0.00 49 1005.5
20260506132413 75 121 9.6 20.0 0.00 0.00 0.00 50 1005.5
20260506132213 75 124 8.7 20.0 0.00 0.00 0.00 50 1005.5
20260506131813 74 131 7.8 20.0 0.00 0.00 0.00 50 1005.6
20260506131412 74 133 7.8 14.8 0.00 0.00 0.00 51 1005.7
20260506131212 74 132 7.8 16.5 0.00 0.00 0.00 51 1005.7
20260506131012 74 129 7.8 16.5 0.00 0.00 0.00 51 1005.8
20260506130812 74 127 8.7 16.5 0.00 0.00 0.00 53 1005.9
20260506130613 73 123 8.7 16.5 0.00 0.00 0.00 52 1006.0
20260506130413 73 121 8.7 16.5 0.00 0.00 0.00 51 1006.1
20260506130213 73 117 9.6 14.8 0.00 0.00 0.00 52 1006.0
20260506130013 73 113 9.6 20.0 0.00 0.00 0.00 53 1006.0
20260506125813 73 114 9.6 20.0 0.00 0.00 0.00 53 1005.9
20260506125613 73 119 9.6 20.0 0.00 0.00 0.00 53 1005.9
20260506125413 73 125 9.6 20.0 0.00 0.00 0.00 52 1006.0
20260506125213 73 126 9.6 20.0 0.00 0.00 0.00 52 1006.0
20260506125012 74 127 8.7 17.4 0.00 0.00 0.00 52 1006.0
20260506124812 74 124 8.7 18.2 0.00 0.00 0.00 52 1006.0
20260506124612 74 124 8.7 18.2 0.00 0.00 0.00 51 1006.1
20260506124412 74 119 8.7 18.2 0.00 0.00 0.00 51 1006.1
20260506124213 74 117 9.6 18.2 0.00 0.00 0.00 51 1006.1
20260506124013 74 118 9.6 18.2 0.00 0.00 0.00 50 1006.0
20260506123812 74 120 9.6 17.4 0.00 0.00 0.00 51 1006.1
20260506123613 74 117 9.6 18.2 0.00 0.00 0.00 51 1006.1
20260506123412 74 118 9.6 18.2 0.00 0.00 0.00 51 1006.1
20260506123212 74 122 9.6 18.2 0.00 0.00 0.00 51 1006.1
20260506123013 75 128 9.6 18.2 0.00 0.00 0.00 50 1006.0
20260506122813 75 130 9.6 18.2 0.00 0.00 0.00 50 1006.0
20260506122613 76 135 10.4 17.4 0.00 0.00 0.00 50 1006.2
20260506122413 75 133 10.4 17.4 0.00 0.00 0.00 50 1006.0
20260506122213 75 129 10.4 20.0 0.00 0.00 0.00 49 1006.2
20260506122013 75 124 10.4 20.0 0.00 0.00 0.00 51 1006.3
20260506121613 74 117 9.6 20.0 0.00 0.00 0.00 51 1006.3
20260506121413 74 119 9.6 20.0 0.00 0.00 0.00 52 1006.4
20260506121213 75 119 9.6 19.1 0.00 0.00 0.00 52 1006.3
20260506120813 75 127 9.6 17.4 0.00 0.00 0.00 50 1006.4
20260506120613 75 127 9.6 17.4 0.00 0.00 0.00 51 1006.3
20260506120413 75 123 9.6 17.4 0.00 0.00 0.00 51 1006.3
20260506120212 75 122 10.4 17.4 0.00 0.00 0.00 50 1006.4
20260506115213 75 123 10.4 19.1 0.00 0.00 0.00 51 1006.4
20260506115013 74 123 10.4 19.1 0.00 0.00 0.00 51 1006.3
20260506114813 74 124 10.4 19.1 0.00 0.00 0.00 50 1006.3
20260506114613 74 121 10.4 19.1 0.00 0.00 0.00 50 1006.4
20260506114413 74 119 10.4 17.4 0.00 0.00 0.00 51 1006.3
20260506114212 74 119 9.6 17.4 0.00 0.00 0.00 52 1006.3
20260506114012 74 119 9.6 17.4 0.00 0.00 0.00 52 1006.3
20260506113413 74 119 9.6 15.6 0.00 0.00 0.00 52 1006.3
20260506113212 74 119 9.6 17.4 0.00 0.00 0.00 53 1006.4
20260506113012 74 120 9.6 17.4 0.00 0.00 0.00 52 1006.4
20260506112812 74 123 9.6 17.4 0.00 0.00 0.00 52 1006.4
20260506112613 74 125 9.6 17.4 0.00 0.00 0.00 53 1006.5
20260506112013 74 125 10.4 19.1 0.00 0.00 0.00 53 1006.5
20260506111813 74 126 10.4 19.1 0.00 0.00 0.00 53 1006.6
20260506111612 74 128 10.4 19.1 0.00 0.00 0.00 53 1006.6
20260506111412 74 134 10.4 20.0 0.00 0.00 0.00 52 1006.7
20260506111212 74 139 10.4 20.0 0.00 0.00 0.00 52 1006.6
20260506111012 74 141 9.6 20.0 0.00 0.00 0.00 52 1006.6
20260506110813 74 140 9.6 20.0 0.00 0.00 0.00 53 1006.6
20260506110613 74 139 9.6 20.0 0.00 0.00 0.00 53 1006.7
20260506110413 74 133 9.6 18.2 0.00 0.00 0.00 52 1006.6
20260506110213 73 130 8.7 18.2 0.00 0.00 0.00 52 1006.7
20260506110013 73 128 8.7 18.2 0.00 0.00 0.00 53 1006.8
20260506105813 73 130 8.7 18.2 0.00 0.00 0.00 52 1006.8
20260506105613 73 127 8.7 14.8 0.00 0.00 0.00 52 1006.8
20260506105213 74 126 8.7 19.1 0.00 0.00 0.00 52 1006.8
20260506105013 74 126 8.7 19.1 0.00 0.00 0.00 53 1006.7
20260506104813 74 126 8.7 19.1 0.00 0.00 0.00 53 1006.8
20260506104413 74 126 8.7 16.5 0.00 0.00 0.00 52 1006.8
20260506104212 74 127 8.7 16.5 0.00 0.00 0.00 52 1006.8
20260506104013 74 126 7.8 16.5 0.00 0.00 0.00 53 1006.8
20260506103813 74 124 7.8 16.5 0.00 0.00 0.00 52 1006.8
20260506103613 73 121 7.8 16.5 0.00 0.00 0.00 53 1006.8
20260506103413 73 121 7.8 18.2 0.00 0.00 0.00 52 1006.9
20260506103213 73 119 7.8 18.2 0.00 0.00 0.00 52 1006.8
20260506103012 73 122 7.8 18.2 0.00 0.00 0.00 52 1006.8
20260506102813 73 120 7.8 18.2 0.00 0.00 0.00 51 1006.9
20260506102614 74 118 7.0 18.2 0.00 0.00 0.00 50 1006.9
20260506102413 74 119 7.0 14.8 0.00 0.00 0.00 50 1007.0
20260506102213 74 125 7.0 14.8 0.00 0.00 0.00 52 1007.0
20260506102013 73 124 7.0 12.2 0.00 0.00 0.00 51 1006.9
20260506101813 73 130 7.0 12.2 0.00 0.00 0.00 52 1007.0
20260506101612 73 137 7.0 13.0 0.00 0.00 0.00 51 1007.0
20260506101413 73 137 7.0 13.0 0.00 0.00 0.00 52 1007.0
20260506101213 73 129 7.0 13.9 0.00 0.00 0.00 53 1007.1
20260506101012 73 129 7.0 13.9 0.00 0.00 0.00 53 1007.1
20260506100813 73 126 7.0 13.9 0.00 0.00 0.00 55 1007.1
20260506100613 73 125 7.0 13.9 0.00 0.00 0.00 56 1007.1
20260506100414 72 121 7.0 13.9 0.00 0.00 0.00 56 1007.2
20260506100212 72 123 7.0 13.0 0.00 0.00 0.00 56 1007.2
20260506100013 73 123 6.1 13.0 0.00 0.00 0.00 55 1007.1
20260506095813 73 123 6.1 13.0 0.00 0.00 0.00 55 1007.1
20260506095413 73 124 6.1 13.0 0.00 0.00 0.00 54 1007.1
20260506095213 72 124 6.1 13.0 0.00 0.00 0.00 54 1007.2
20260506095013 73 123 5.2 13.0 0.00 0.00 0.00 53 1007.2
20260506094813 73 119 5.2 12.2 0.00 0.00 0.00 52 1007.2
20260506094613 73 125 5.2 12.2 0.00 0.00 0.00 50 1007.1
20260506094412 73 131 5.2 12.2 0.00 0.00 0.00 51 1007.2
20260506094013 73 135 5.2 10.4 0.00 0.00 0.00 51 1007.1
20260506093814 73 139 5.2 10.4 0.00 0.00 0.00 53 1007.1
20260506093613 72 133 5.2 10.4 0.00 0.00 0.00 52 1007.1
20260506093413 72 126 5.2 10.4 0.00 0.00 0.00 55 1007.2
20260506093212 71 126 4.3 9.6 0.00 0.00 0.00 55 1007.2
20260506093013 72 135 4.3 9.6 0.00 0.00 0.00 55 1007.2
20260506092612 72 148 4.3 9.6 0.00 0.00 0.00 57 1007.2
20260506092413 72 158 4.3 9.6 0.00 0.00 0.00 54 1007.3
20260506092012 72 153 4.3 9.6 0.00 0.00 0.00 54 1007.3
20260506091813 71 161 5.2 10.4 0.00 0.00 0.00 56 1007.3
20260506091613 71 163 5.2 10.4 0.00 0.00 0.00 55 1007.3
20260506091412 72 165 4.3 10.4 0.00 0.00 0.00 55 1007.4
20260506091213 72 168 4.3 10.4 0.00 0.00 0.00 57 1007.3
20260506091013 72 174 4.3 10.4 0.00 0.00 0.00 57 1007.3
20260506090613 72 173 4.3 9.6 0.00 0.00 0.00 59 1007.4
20260506090414 71 158 4.3 9.6 0.00 0.00 0.00 58 1007.4
20260506090214 71 155 5.2 9.6 0.00 0.00 0.00 59 1007.4
20260506090013 70 152 5.2 8.7 0.00 0.00 0.00 61 1007.4
20260506085813 70 148 5.2 9.6 0.00 0.00 0.00 58 1007.3
20260506085413 70 158 4.3 10.4 0.00 0.00 0.00 60 1007.5
20260506085213 70 158 4.3 10.4 0.00 0.00 0.00 60 1007.4
20260506085013 70 158 4.3 10.4 0.00 0.00 0.00 60 1007.4
20260506084413 70 170 5.2 9.6 0.00 0.00 0.00 60 1007.4
20260506084213 70 174 5.2 9.6 0.00 0.00 0.00 62 1007.5
20260506084012 69 173 5.2 9.6 0.00 0.00 0.00 61 1007.5
20260506083813 69 169 5.2 10.4 0.00 0.00 0.00 60 1007.5
20260506083613 69 167 5.2 10.4 0.00 0.00 0.00 61 1007.5
20260506082813 69 160 5.2 10.4 0.00 0.00 0.00 61 1007.5
20260506082413 69 162 6.1 11.3 0.00 0.00 0.00 63 1007.5
20260506082216 69 154 6.1 11.3 0.00 0.00 0.00 63 1007.5
20260506082013 68 150 6.1 11.3 0.00 0.00 0.00 63 1007.5
20260506081813 68 159 6.1 11.3 0.00 0.00 0.00 63 1007.5
20260506081613 68 158 6.1 11.3 0.00 0.00 0.00 63 1007.4
20260506081413 68 151 5.2 10.4 0.00 0.00 0.00 63 1007.4
20260506080813 68 163 4.3 11.3 0.00 0.00 0.00 62 1007.4
20260506080613 68 163 4.3 11.3 0.00 0.00 0.00 62 1007.4
20260506080412 69 172 4.3 11.3 0.00 0.00 0.00 62 1007.4
20260506080213 69 172 4.3 11.3 0.00 0.00 0.00 64 1007.4
20260506073412 66 154 5.2 9.6 0.00 0.00 0.00 68 1007.5
20260506073215 65 155 5.2 11.3 0.00 0.00 0.00 68 1007.6
20260506073013 65 155 5.2 11.3 0.00 0.00 0.00 68 1007.5
20260506072813 65 158 5.2 11.3 0.00 0.00 0.00 67 1007.5
20260506072413 66 157 5.2 11.3 0.00 0.00 0.00 66 1007.7
20260506072212 66 157 5.2 8.7 0.00 0.00 0.00 68 1007.7
20260506072014 65 156 5.2 8.7 0.00 0.00 0.00 68 1007.7
20260506071813 65 162 6.1 9.6 0.00 0.00 0.00 68 1007.7
20260506071612 65 168 6.1 10.4 0.00 0.00 0.00 68 1007.7
20260506071413 65 167 6.1 10.4 0.00 0.00 0.00 68 1007.7
20260506071213 65 165 6.1 10.4 0.00 0.00 0.00 68 1007.8
20260506070813 65 153 6.1 10.4 0.00 0.00 0.00 68 1007.7
20260506070613 65 151 6.1 10.4 0.00 0.00 0.00 69 1007.8
20260506070413 64 153 6.1 10.4 0.00 0.00 0.00 68 1007.7
20260506070213 64 156 6.1 12.2 0.00 0.00 0.00 68 1007.7
20260506062212 63 165 5.2 10.4 0.00 0.00 0.00 69 1007.6
20260506061613 63 160 6.1 10.4 0.00 0.00 0.00 70 1007.5
20260506061412 63 158 6.1 10.4 0.00 0.00 0.00 70 1007.5
20260506061213 63 157 6.1 10.4 0.00 0.00 0.00 69 1007.5
20260506061013 63 157 6.1 10.4 0.00 0.00 0.00 69 1007.5
20260506060813 63 161 6.1 10.4 0.00 0.00 0.00 68 1007.5
20260506060412 64 165 6.1 10.4 0.00 0.00 0.00 69 1007.5
20260506060212 64 166 6.1 13.9 0.00 0.00 0.00 69 1007.5
20260506051413 60 177 3.5 6.1 0.00 0.00 0.00 73 1007.3
20260506051012 60 161 3.5 7.0 0.00 0.00 0.00 73 1007.2
20260506050813 60 155 4.3 7.8 0.00 0.00 0.00 72 1007.1
20260506050612 60 149 4.3 7.8 0.00 0.00 0.00 72 1007.1
20260506050413 60 147 4.3 10.4 0.00 0.00 0.00 72 1007.1
20260506050212 60 148 4.3 10.4 0.00 0.00 0.00 72 1007.1
20260506045013 59 140 5.2 8.7 0.00 0.00 0.00 74 1006.9
20260506044812 59 142 5.2 9.6 0.00 0.00 0.00 74 1006.9
20260506044613 59 143 5.2 9.6 0.00 0.00 0.00 74 1006.8
20260506044413 59 143 5.2 9.6 0.00 0.00 0.00 74 1006.9
20260506044212 58 145 4.3 9.6 0.00 0.00 0.00 74 1006.8
20260506044013 58 146 4.3 9.6 0.00 0.00 0.00 75 1006.8
20260506043612 58 148 4.3 8.7 0.00 0.00 0.00 75 1006.8
20260506043413 58 150 5.2 8.7 0.00 0.00 0.00 75 1006.8
20260506043213 58 151 5.2 7.8 0.00 0.00 0.00 75 1006.8
20260506043012 58 155 5.2 8.7 0.00 0.00 0.00 75 1006.8
20260506042612 58 148 5.2 10.4 0.00 0.00 0.00 75 1006.7
20260506042413 58 145 5.2 10.4 0.00 0.00 0.00 74 1006.7
20260506041812 58 137 5.2 11.3 0.00 0.00 0.00 74 1006.6
20260506041613 58 143 5.2 11.3 0.00 0.00 0.00 74 1006.6
20260506041212 58 147 5.2 9.6 0.00 0.00 0.00 74 1006.6
20260506040812 58 153 5.2 9.6 0.00 0.00 0.00 74 1006.6
20260506040412 58 150 5.2 9.6 0.00 0.00 0.00 74 1006.5
20260506040212 58 151 5.2 9.6 0.00 0.00 0.00 74 1006.6
20260506035812 58 152 4.3 8.7 0.00 0.00 0.00 74 1006.6
20260506035612 58 152 4.3 8.7 0.00 0.00 0.00 74 1006.5
20260506035412 58 149 3.5 8.7 0.00 0.00 0.00 74 1006.5
20260506035212 58 145 3.5 8.7 0.00 0.00 0.00 73 1006.5
20260506035012 58 141 3.5 8.7 0.00 0.00 0.00 73 1006.4
20260506034812 58 137 4.3 7.8 0.00 0.00 0.00 73 1006.4
20260506034612 58 135 4.3 7.0 0.00 0.00 0.00 74 1006.3
20260506034412 58 139 4.3 8.7 0.00 0.00 0.00 74 1006.3
20260506034213 58 142 4.3 8.7 0.00 0.00 0.00 74 1006.3
20260506034013 58 143 4.3 8.7 0.00 0.00 0.00 73 1006.3
20260506033812 58 144 5.2 8.7 0.00 0.00 0.00 74 1006.2
20260506033612 58 143 5.2 9.6 0.00 0.00 0.00 74 1006.2
20260506033412 58 142 5.2 9.6 0.00 0.00 0.00 73 1006.3
20260506033212 58 140 5.2 9.6 0.00 0.00 0.00 73 1006.3
20260506032812 58 142 4.3 10.4 0.00 0.00 0.00 73 1006.3
20260506032612 58 147 4.3 10.4 0.00 0.00 0.00 73 1006.2
20260506032212 58 158 4.3 10.4 0.00 0.00 0.00 74 1006.2
20260506032013 58 168 4.3 9.6 0.00 0.00 0.00 73 1006.2
20260506031813 58 168 4.3 9.6 0.00 0.00 0.00 73 1006.2
20260506031612 58 165 4.3 9.6 0.00 0.00 0.00 73 1006.2
20260506031412 58 166 5.2 9.6 0.00 0.00 0.00 73 1006.3
20260506031212 58 164 5.2 9.6 0.00 0.00 0.00 73 1006.3
20260506031012 58 157 6.1 9.6 0.00 0.00 0.00 72 1006.2
20260506030412 59 148 7.0 13.9 0.00 0.00 0.00 72 1006.2
20260506030012 59 146 7.0 13.9 0.00 0.00 0.00 72 1006.1
20260506025813 59 147 7.0 13.9 0.00 0.00 0.00 72 1006.1
20260506025612 59 148 7.0 13.9 0.00 0.00 0.00 72 1006.1
20260506025412 59 151 7.0 13.0 0.00 0.00 0.00 72 1006.1
20260506025012 59 155 7.8 11.3 0.00 0.00 0.00 71 1006.1
20260506024812 59 155 7.8 13.0 0.00 0.00 0.00 71 1006.1
20260506024612 59 154 7.8 14.8 0.00 0.00 0.00 71 1006.0
20260506024412 59 155 7.8 14.8 0.00 0.00 0.00 71 1006.0
20260506024212 59 152 7.8 14.8 0.00 0.00 0.00 71 1006.0
20260506024012 59 151 7.8 14.8 0.00 0.00 0.00 70 1006.0
20260506023612 59 150 7.8 14.8 0.00 0.00 0.00 70 1006.0
20260506023412 59 147 7.8 14.8 0.00 0.00 0.00 70 1005.9
20260506023212 59 146 7.0 13.0 0.00 0.00 0.00 70 1005.9
20260506023012 59 147 7.0 13.0 0.00 0.00 0.00 70 1005.9
20260506022613 59 148 7.0 13.0 0.00 0.00 0.00 70 1005.8
20260506022412 59 147 7.0 13.0 0.00 0.00 0.00 70 1005.8
20260506022212 59 148 7.0 13.9 0.00 0.00 0.00 71 1005.8
20260506022012 59 150 7.0 13.9 0.00 0.00 0.00 71 1005.7
20260506021812 59 151 6.1 13.9 0.00 0.00 0.00 71 1005.8
20260506021612 59 151 5.2 13.9 0.00 0.00 0.00 71 1005.7
20260506021412 59 153 5.2 13.9 0.00 0.00 0.00 71 1005.7
20260506021212 59 155 5.2 13.9 0.00 0.00 0.00 71 1005.8
20260506021012 59 161 5.2 13.9 0.00 0.00 0.00 71 1005.7
20260506020612 59 163 6.1 8.7 0.00 0.00 0.00 71 1005.7
20260506020412 59 165 7.0 11.3 0.00 0.00 0.00 71 1005.7
20260506020212 59 166 7.0 12.2 0.00 0.00 0.00 71 1005.7
20260506015812 59 151 7.0 15.6 0.00 0.00 0.00 71 1005.6
20260506015612 59 148 7.0 15.6 0.00 0.00 0.00 70 1005.6
20260506015412 59 141 7.0 15.6 0.00 0.00 0.00 70 1005.5